Plymouth, NH

10:04 AM EDT on May 24, 2018 (GMT -0400)
Plymouth

Weather History for K1P1 - January, 2014

Change the Weather History Date:

Monday, January 20, 2014

  Actual Average (KLCI) Record (KLCI)
Temperature  
Mean Temperature 20 °F -  
Max Temperature 35 °F 29 °F 55 °F (1996)
Min Temperature 4 °F 10 °F -23 °F (1994)
Degree Days  
Heating Degree Days 45    
Moisture  
Dew Point 16 °F    
Average Humidity 67    
Maximum Humidity 83    
Minimum Humidity 54    
Precipitation  
Precipitation 0.00 in - - ()
Sea Level Pressure  
Sea Level Pressure 29.56 in    
Wind  
Wind Speed 6 mph (West)    
Max Wind Speed 15 mph    
Max Gust Speed 21 mph    
Visibility 9 miles    
Events Snow    
Averages and records for this station are not official NWS values.
T = Trace of Precipitation, MM = Missing Value Source: NWS Daily Summary

Daily Weather History Graph

Daily Weather History Graph

Search for Another Location

Airport or City:

Astronomy

Jan. 20, 2014 Rise Set
Actual Time 7:14 AM EST 4:41 PM EST
Civil Twilight 6:43 AM EST 5:13 PM EST
Nautical Twilight 6:08 AM EST 5:48 PM EST
Astronomical Twilight 5:33 AM EST 6:22 PM EST
Moon 9:24 PM EST (1/20) 9:03 AM EST (1/20)
Length of Visible Light 10h 30m
Length of Day
9h 27m
Waning Gibbous, 83% of the Moon is Illuminated
Jan 20
Waning Gibbous
Jan 24
Last Quarter
Jan 30
New
Feb 6
First Quarter
Feb 14
Full

Hourly Weather History & Observations

Time (EST) Temp. Windchill Dew Point Humidity Pressure Visibility Wind Dir Wind Speed Gust Speed Precip Events Conditions
12:15 AM 30.2 °F 25.4 °F 20.3 °F 67% 29.43 in 10.0 mi West 4.6 mph - N/A   Overcast
12:35 AM 30.0 °F 24.1 °F 20.3 °F 67% 29.42 in 10.0 mi WSW 5.8 mph - N/A   Overcast
12:55 AM 30.2 °F 25.4 °F 20.7 °F 68% 29.43 in 10.0 mi West 4.6 mph - N/A   Overcast
1:15 AM 30.2 °F 25.4 °F 20.7 °F 68% 29.43 in 10.0 mi West 4.6 mph - N/A   Overcast
1:35 AM 30.7 °F 24.1 °F 20.5 °F 66% 29.44 in 10.0 mi West 6.9 mph - N/A   Overcast
1:55 AM 30.9 °F - 20.3 °F 65% 29.44 in 10.0 mi Calm Calm - N/A   Overcast
2:15 AM 31.1 °F 26.4 °F 20.1 °F 64% 29.45 in 10.0 mi WSW 4.6 mph - N/A   Overcast
2:35 AM 30.7 °F 27.3 °F 20.3 °F 65% 29.45 in 10.0 mi WSW 3.5 mph - N/A   Overcast
2:55 AM 31.1 °F - 20.1 °F 64% 29.44 in 10.0 mi Calm Calm - N/A   Overcast
3:15 AM 30.7 °F - 20.1 °F 65% 29.44 in 10.0 mi Calm Calm - N/A   Overcast
3:35 AM 31.1 °F 27.7 °F 20.1 °F 64% 29.45 in 10.0 mi West 3.5 mph - N/A   Overcast
3:55 AM 31.1 °F 26.4 °F 20.3 °F 64% 29.45 in 10.0 mi SW 4.6 mph - N/A   Overcast
4:15 AM 31.6 °F 27.0 °F 20.7 °F 64% 29.46 in 10.0 mi SW 4.6 mph - N/A   Overcast
4:35 AM 31.6 °F 24.4 °F 21.2 °F 65% 29.46 in 10.0 mi WSW 8.1 mph - N/A   Overcast
4:55 AM 31.6 °F - 21.6 °F 66% 29.46 in 10.0 mi Calm Calm - N/A   Overcast
5:15 AM 31.8 °F 27.3 °F 21.9 °F 67% 29.46 in 10.0 mi SW 4.6 mph - N/A   Overcast
5:35 AM 31.8 °F 28.5 °F 22.1 °F 67% 29.46 in 10.0 mi SW 3.5 mph - N/A   Overcast
5:55 AM 31.6 °F 27.0 °F 22.1 °F 68% 29.46 in 10.0 mi SW 4.6 mph - N/A   Overcast
6:15 AM 31.6 °F 27.0 °F 22.6 °F 69% 29.47 in 10.0 mi WSW 4.6 mph - N/A   Overcast
6:35 AM 31.8 °F 26.2 °F 22.6 °F 69% 29.47 in 10.0 mi WSW 5.8 mph - N/A   Overcast
6:55 AM 31.8 °F 27.3 °F 22.8 °F 69% 29.48 in 10.0 mi SW 4.6 mph - N/A   Overcast
7:15 AM 32.0 °F 26.4 °F 22.6 °F 68% 29.47 in 10.0 mi SW 5.8 mph - N/A   Overcast
7:35 AM 31.8 °F 28.5 °F 22.8 °F 69% 29.47 in 10.0 mi WSW 3.5 mph 16.1 mph N/A   Overcast
7:55 AM 32.0 °F 25.6 °F 22.6 °F 68% 29.47 in 10.0 mi SW 6.9 mph - N/A   Overcast
8:15 AM 32.0 °F 26.4 °F 22.6 °F 68% 29.47 in 10.0 mi SW 5.8 mph - N/A   Overcast
8:35 AM 32.0 °F 28.7 °F 22.8 °F 69% 29.47 in 10.0 mi WSW 3.5 mph - N/A   Overcast
8:55 AM 32.0 °F - 23.5 °F 71% 29.48 in 4.0 mi Calm Calm - N/A Snow Light Snow
9:15 AM 32.0 °F - 24.6 °F 74% 29.49 in 3.0 mi Calm Calm - N/A Snow Light Snow
9:35 AM 32.0 °F - 26.1 °F 79% 29.49 in 4.0 mi Calm Calm - N/A Snow Light Snow
9:55 AM 32.4 °F 27.9 °F 25.5 °F 76% 29.49 in 7.0 mi West 4.6 mph - N/A Snow Light Snow
10:15 AM 34.2 °F 29.0 °F 25.5 °F 71% 29.48 in 10.0 mi WSW 5.8 mph - N/A   Mostly Cloudy
10:35 AM 34.3 °F 25.0 °F 24.6 °F 68% 29.48 in 10.0 mi WSW 13.8 mph 19.6 mph N/A   Mostly Cloudy
10:55 AM 34.7 °F 27.5 °F 24.3 °F 66% 29.47 in 10.0 mi WSW 9.2 mph 18.4 mph N/A   Overcast
11:15 AM 34.2 °F 31.2 °F 23.9 °F 66% 29.46 in 10.0 mi West 3.5 mph - N/A   Overcast
11:35 AM 35.2 °F 31.2 °F 23.7 °F 63% 29.45 in 10.0 mi WSW 4.6 mph - N/A   Overcast
11:55 AM 34.0 °F 29.8 °F 24.6 °F 69% 29.44 in 7.0 mi SSW 4.6 mph - N/A Snow Light Snow
12:15 PM 35.8 °F 29.4 °F 24.1 °F 62% 29.45 in 10.0 mi WSW 8.1 mph - N/A   Overcast
12:35 PM 34.2 °F 30.0 °F 24.1 °F 67% 29.45 in 7.0 mi WSW 4.6 mph 17.3 mph N/A Snow Light Snow
12:55 PM 34.3 °F 26.5 °F 24.1 °F 66% 29.45 in 10.0 mi SW 10.4 mph - N/A   Overcast
1:15 PM 33.4 °F 28.1 °F 25.2 °F 72% 29.45 in 3.0 mi WSW 5.8 mph 16.1 mph N/A Snow Light Snow
1:35 PM 34.0 °F 29.8 °F 25.7 °F 72% 29.45 in 10.0 mi WSW 4.6 mph - N/A Snow Light Snow
1:55 PM 33.6 °F 26.8 °F 23.5 °F 67% 29.45 in 10.0 mi WNW 8.1 mph - N/A   Overcast
2:15 PM 32.0 °F 24.2 °F 23.0 °F 69% 29.45 in 10.0 mi West 9.2 mph - N/A Snow Light Snow
2:35 PM 30.6 °F 22.4 °F 23.9 °F 76% 29.46 in 4.0 mi West 9.2 mph - N/A Snow Light Snow
2:55 PM 29.3 °F 21.5 °F 24.8 °F 83% 29.48 in 1.5 mi West 8.1 mph - N/A Snow Light Snow
3:15 PM 28.8 °F 20.2 °F 23.5 °F 81% 29.50 in 1.8 mi West 9.2 mph 16.1 mph N/A Snow Light Snow
3:35 PM 28.0 °F 18.1 °F 22.1 °F 78% 29.52 in 2.5 mi West 11.5 mph 17.3 mph N/A Snow Light Snow
3:55 PM 26.6 °F 18.2 °F 20.8 °F 79% 29.54 in 3.0 mi West 8.1 mph 17.3 mph N/A Snow Light Snow
4:15 PM 25.5 °F 13.3 °F 18.5 °F 75% 29.56 in 10.0 mi West 15.0 mph - N/A   Overcast
4:35 PM 24.4 °F 13.5 °F 17.4 °F 75% 29.58 in 5.0 mi West 11.5 mph 19.6 mph N/A Snow Light Snow
4:55 PM 23.2 °F 12.0 °F 15.4 °F 72% 29.61 in 10.0 mi West 11.5 mph 17.3 mph N/A Snow Light Snow
5:15 PM 22.6 °F 12.6 °F 14.7 °F 72% 29.62 in 10.0 mi West 9.2 mph 16.1 mph N/A   Mostly Cloudy
5:35 PM 21.9 °F 10.4 °F 13.1 °F 69% 29.63 in 10.0 mi West 11.5 mph 17.3 mph N/A   Scattered Clouds
5:55 PM 21.2 °F 8.3 °F 11.7 °F 67% 29.66 in 10.0 mi West 13.8 mph 18.4 mph N/A   Mostly Cloudy
6:15 PM 20.7 °F 11.0 °F 10.9 °F 66% 29.67 in 10.0 mi West 8.1 mph 18.4 mph N/A   Overcast
6:35 PM 19.0 °F 8.2 °F 9.9 °F 67% 29.68 in 10.0 mi West 9.2 mph 20.7 mph N/A   Mostly Cloudy
6:55 PM 17.4 °F 4.7 °F 8.2 °F 67% 29.69 in 10.0 mi West 11.5 mph 19.6 mph N/A   Mostly Cloudy
7:15 PM 16.0 °F 5.3 °F 6.4 °F 66% 29.73 in 10.0 mi West 8.1 mph 18.4 mph N/A   Scattered Clouds
7:35 PM 14.9 °F 2.3 °F 4.8 °F 64% 29.74 in 10.0 mi WNW 10.4 mph 16.1 mph N/A   Clear
7:55 PM 13.5 °F 4.4 °F 3.4 °F 64% 29.76 in 10.0 mi West 5.8 mph - N/A   Scattered Clouds
8:15 PM 12.2 °F -0.2 °F 1.8 °F 63% 29.78 in 10.0 mi WNW 9.2 mph - N/A   Clear
8:35 PM 11.3 °F -2.9 °F 0.5 °F 62% 29.79 in 10.0 mi WNW 11.5 mph - N/A   Clear
8:55 PM 10.6 °F -2.2 °F -0.8 °F 60% 29.80 in 10.0 mi WNW 9.2 mph - N/A   Clear
9:15 PM 10.0 °F -2.9 °F -2.0 °F 58% 29.81 in 10.0 mi West 9.2 mph - N/A   Clear
9:35 PM 9.5 °F -4.4 °F -4.0 °F 54% 29.82 in 10.0 mi West 10.4 mph - N/A   Clear
9:55 PM 8.6 °F -4.7 °F -4.9 °F 54% 29.83 in 10.0 mi West 9.2 mph - N/A   Clear
10:15 PM 7.9 °F -4.6 °F -5.6 °F 54% 29.85 in 10.0 mi West 8.1 mph 16.1 mph N/A   Clear
10:35 PM 7.0 °F -4.5 °F -6.0 °F 55% 29.86 in 10.0 mi WNW 6.9 mph - N/A   Clear
10:55 PM 6.6 °F -6.1 °F -6.2 °F 56% 29.89 in 10.0 mi WNW 8.1 mph - N/A   Clear
11:15 PM 5.7 °F -7.2 °F -6.5 °F 57% 29.90 in 10.0 mi WNW 8.1 mph - N/A   Clear
11:35 PM 5.0 °F -10.0 °F -6.3 °F 60% 29.90 in 10.0 mi WNW 10.4 mph - N/A   Clear
11:55 PM 4.6 °F -8.5 °F -6.7 °F 59% 29.90 in 10.0 mi WNW 8.1 mph - N/A   Clear